Terminal Aerodrome Forecast
Issued by NWS Jackson, MS

Home | Current Version | Previous Version | Text Only | Print | Product List | Glossary On
Versions: 1 2 3 4 5 6 7 8 9 10 11 12
642
FTUS44 KJAN 300522
TAFGWO
TAF
KGWO 300522Z 3006/0106 33004KT P6SM BKN070
     FM301800 31006KT P6SM SCT050=

USA.gov is the U.S. government's official web portal to all federal, state and local government web resources and services.